Wind_Speed
32 32 30 29 28 28 28 30 32 33 35 36 37 37 37 37 38 38 38 37 37 37 37 37 36 36 35 34 34 33 32 32 31 31 30 29 28 27 26 26 25 24 24 23 23 24 24 23 23 23 23 23 24 25 26 27 28 27 26 27 28 30 31 31 31 31 31 30 29 27 26 26 25 25 26 24 24 30 35 35 32 33 35 35 34
31 31 30 29 29 29 31 33 36 37 38 38 38 38 39 38 39 39 39 39 38 38 38 38 37 36 35 34 33 33 32 31 30 30 29 29 29 28 27 26 26 25 24 24 24 25 24 24 24 23 23 23 23 23 23 25 27 28 28 27 26 28 30 31 32 32 32 33 32 30 28 28 27 26 27 27 25 25 30 35 36 35 35 35 36
30 30 30 31 32 33 35 36 38 38 38 38 39 39 39 39 39 39 39 39 38 38 38 37 36 35 34 33 32 32 31 30 30 29 28 28 28 28 27 27 27 26 26 26 25 25 25 25 24 24 24 24 23 22 23 24 25 27 28 29 28 27 27 29 31 33 34 35 34 33 31 30 30 29 28 29 28 26 26 30 35 36 35 35 37
31 32 32 33 35 36 38 38 39 39 39 39 39 40 40 40 40 39 39 39 38 37 37 36 35 34 33 32 30 30 30 30 29 29 28 28 28 27 27 27 27 27 27 27 26 26 26 26 25 25 25 24 24 23 23 24 25 26 27 28 29 30 28 27 28 30 34 36 37 36 34 33 33 32 30 30 30 29 28 28 31 34 36 37 37
33 34 35 35 36 37 38 39 39 39 40 40 40 40 39 39 39 38 37 37 36 35 35 34 33 32 32 31 30 29 29 29 29 29 29 28 28 28 28 28 28 28 28 27 27 27 27 27 26 25 25 25 24 24 24 25 25 25 26 27 28 30 31 30 29 28 30 34 38 38 37 36 36 35 33 32 32 32 31 30 30 31 34 37 37
35 36 38 38 39 39 39 39 39 40 40 40 39 38 37 37 36 36 35 34 34 34 33 33 32 32 31 30 29 29 29 29 29 28 28 29 29 29 29 29 29 29 28 28 28 28 28 27 26 26 25 25 24 24 24 24 25 24 25 26 28 29 31 32 33 32 30 30 34 38 39 38 38 38 36 35 34 34 34 33 31 31 32 34 36
37 38 39 39 40 40 40 40 40 40 39 38 37 36 35 35 35 34 34 34 33 33 32 32 31 31 30 29 29 29 28 28 28 28 28 28 29 29 29 30 30 29 29 29 29 28 28 28 27 26 25 24 24 24 24 24 23 23 24 25 26 28 30 31 34 35 34 31 31 34 38 40 40 40 39 37 36 36 36 35 33 32 33 33 33
39 39 40 40 40 41 41 40 40 39 38 37 36 35 35 35 35 34 34 33 33 32 31 30 30 30 29 28 29 29 28 28 27 27 27 27 28 29 29 29 29 29 29 29 29 29 29 28 28 27 26 25 24 24 24 23 23 22 23 24 25 26 28 30 32 34 36 36 34 32 34 38 41 41 41 41 39 37 37 36 35 34 34 34 33
40 41 41 41 40 40 40 40 39 38 37 37 37 37 36 36 35 34 34 33 32 31 31 30 29 29 28 27 28 28 27 27 26 26 27 27 27 28 28 28 28 28 28 28 28 28 28 28 28 27 26 25 24 24 23 23 23 23 23 24 24 25 26 28 30 33 36 38 38 36 34 34 37 41 42 43 42 40 38 37 37 36 36 36 35
40 40 40 40 39 39 39 39 39 39 38 38 38 38 37 36 35 34 33 32 31 30 30 29 28 28 27 26 26 26 26 25 25 26 26 26 27 28 28 27 27 26 26 26 26 26 26 27 27 26 26 25 24 24 23 23 23 23 23 24 24 24 24 26 28 30 33 37 39 40 38 35 34 37 41 43 43 42 41 39 38 38 38 38 37
39 39 39 39 39 39 39 39 40 40 40 39 39 38 37 36 34 33 32 31 30 29 28 28 27 27 26 26 25 25 25 25 25 25 25 25 26 26 27 26 26 25 25 25 25 24 24 25 24 24 24 24 24 23 23 23 23 23 23 24 24 24 24 25 26 28 30 34 37 39 40 38 35 34 37 41 43 44 44 42 41 40 40 41 40
39 39 39 39 39 39 39 39 40 40 40 39 38 37 36 35 33 32 31 30 29 28 27 27 27 26 26 25 25 25 25 24 24 24 24 25 25 25 25 25 25 24 24 24 24 24 23 23 23 23 23 23 23 22 22 22 23 23 23 23 24 24 24 24 25 26 28 30 33 37 38 38 37 35 34 37 41 44 45 45 44 43 42 42 43
39 39 39 40 40 40 40 39 39 39 39 38 37 35 34 33 32 31 30 29 28 28 27 27 26 26 26 25 25 25 24 24 24 23 23 24 24 24 24 24 23 23 23 23 23 24 23 22 22 22 22 22 22 22 22 22 22 22 22 23 23 24 24 24 24 25 26 27 30 33 35 37 37 37 34 33 36 41 44 45 45 45 45 44 44
39 39 40 40 40 40 40 39 38 38 37 36 34 34 33 32 31 30 29 28 28 27 27 26 26 26 25 25 24 24 23 23 23 22 22 22 23 23 23 23 23 23 23 23 23 24 23 23 22 22 22 22 23 22 22 22 22 22 22 23 23 24 24 24 25 25 25 26 27 29 32 34 36 36 35 33 33 36 40 44 45 46 46 46 46
40 40 41 41 40 40 39 38 37 36 35 34 33 32 31 31 30 29 28 27 27 26 25 25 25 24 24 23 23 22 22 22 21 21 21 21 21 22 22 22 22 22 23 23 24 24 24 23 23 23 23 23 23 23 23 23 23 23 23 24 24 24 24 25 26 26 26 26 26 27 29 31 34 35 34 33 33 33 36 40 43 45 46 46 48
40 40 40 40 40 39 38 37 36 34 33 32 32 31 30 30 29 28 27 26 25 25 24 23 23 22 22 22 21 21 21 20 20 20 21 21 21 21 21 21 21 22 22 23 23 24 24 23 23 24 24 24 24 24 24 24 24 24 25 25 25 25 26 26 26 27 27 27 27 27 28 29 31 33 34 33 33 33 33 35 39 42 44 45 47
40 40 39 39 38 37 36 34 33 32 31 30 30 29 28 28 27 26 25 25 24 23 22 22 21 21 20 20 20 20 20 20 20 20 20 20 21 21 21 21 21 22 22 22 22 23 24 24 24 24 24 25 25 25 25 26 26 26 26 26 27 27 27 27 28 28 29 29 28 28 29 29 30 31 33 34 33 33 33 33 34 39 42 43 45
38 38 37 36 35 34 33 32 31 30 29 28 27 27 26 25 25 24 23 23 21 21 20 20 20 20 19 19 19 19 19 19 19 20 20 20 21 21 21 21 21 21 22 22 22 22 23 24 24 25 25 26 26 26 26 27 27 28 28 28 28 28 29 29 29 29 30 30 30 30 30 30 30 30 31 33 34 34 34 33 33 35 39 41 42
36 35 34 33 33 32 31 31 30 29 28 27 26 25 24 24 23 22 22 21 20 19 19 19 19 19 19 18 18 18 18 18 19 19 19 20 20 21 21 21 21 21 21 21 22 22 23 24 24 25 26 26 27 27 27 28 28 29 29 29 30 30 30 30 31 31 31 31 31 32 32 32 32 31 30 31 33 34 35 35 34 35 36 37 39
33 32 32 31 31 30 30 29 28 27 26 26 25 24 23 23 22 21 21 20 19 18 18 18 18 18 18 18 17 17 17 17 18 18 18 19 20 20 21 21 21 21 21 22 22 23 23 23 24 25 26 27 27 28 28 29 29 30 30 31 32 32 32 32 32 32 32 33 33 33 33 33 33 32 31 31 31 33 35 35 36 36 36 36 37
31 31 31 31 30 29 29 28 27 26 25 24 23 22 22 21 21 20 19 19 18 18 18 18 18 18 18 18 17 17 17 17 17 17 17 17 18 18 19 20 20 20 21 21 22 23 23 24 24 25 26 27 28 29 29 30 30 31 32 32 33 33 33 34 34 34 34 34 34 34 34 34 34 33 33 32 31 32 33 34 35 36 37 37 37
31 31 31 30 29 28 27 27 26 25 25 24 23 22 21 20 19 19 18 18 18 18 18 18 18 19 18 18 18 18 18 18 18 18 18 18 18 18 19 19 20 21 21 22 23 24 25 25 26 27 27 28 29 29 30 31 31 32 32 33 33 34 34 35 35 35 36 36 36 35 35 35 34 33 33 33 33 32 31 32 34 35 36 36 37
31 30 28 28 27 27 26 26 26 25 24 23 22 21 20 19 19 18 17 17 17 18 18 18 18 19 19 19 19 19 19 19 19 20 20 21 21 21 21 22 22 23 23 24 25 26 26 27 27 28 29 29 30 30 31 31 32 33 33 34 34 35 35 36 36 36 37 36 35 35 35 35 34 33 33 33 33 32 31 31 32 33 35 36 36
29 27 27 26 26 25 25 24 24 24 23 22 22 20 19 19 18 18 17 17 18 18 18 18 18 19 19 19 19 20 20 20 20 21 22 22 23 24 24 24 25 25 25 26 26 26 27 28 28 28 29 29 30 30 31 31 32 32 33 33 33 34 34 34 35 35 35 35 34 34 34 35 34 33 33 33 33 32 32 31 30 31 33 35 36
27 26 26 25 24 24 23 23 22 22 22 22 21 20 19 18 18 18 17 18 18 18 18 19 19 19 20 20 20 21 21 22 22 22 22 23 24 25 26 26 26 26 26 26 26 26 26 26 26 26 27 27 28 28 29 29 30 31 31 32 32 32 32 33 33 34 34 34 33 33 33 34 34 33 33 33 33 32 32 31 30 30 31 33 35
25 25 25 25 24 23 22 22 22 22 22 21 21 20 19 18 18 17 17 18 18 18 19 19 20 20 21 21 21 21 22 22 22 22 21 21 21 23 23 24 24 24 23 23 23 23 23 23 24 24 25 25 26 27 27 28 29 29 30 31 31 31 32 32 32 33 33 33 33 32 33 33 34 33 33 33 33 32 32 32 31 30 30 31 33
25 25 24 24 24 23 22 22 21 21 21 21 21 21 20 20 19 18 18 18 19 19 19 20 20 21 21 21 21 21 21 21 21 20 19 18 18 19 20 20 20 21 21 21 21 21 22 22 23 23 24 24 24 25 25 25 25 26 26 27 27 27 28 29 30 30 31 32 31 32 32 33 33 33 33 33 33 33 32 32 31 30 29 29 31
26 25 25 25 24 24 23 22 22 22 22 22 21 21 21 21 20 20 20 20 20 20 21 21 21 22 22 22 22 22 22 23 23 22 20 19 18 19 19 19 19 19 19 19 19 19 19 20 20 20 20 20 20 20 20 20 20 20 21 21 22 22 23 24 25 26 27 28 29 29 31 32 33 32 32 32 32 32 32 32 31 31 30 29 29
25 25 25 25 24 24 23 23 23 23 22 22 22 21 20 20 21 21 21 21 21 22 22 21 21 22 22 22 22 22 23 25 25 24 23 21 20 20 19 18 17 17 16 16 16 17 17 17 17 16 16 16 17 16 16 16 16 17 18 18 19 20 20 21 22 23 23 24 25 26 27 29 31 31 31 31 31 31 32 32 32 31 30 29 29
24 24 24 24 24 23 23 23 23 23 22 22 21 21 20 20 20 21 21 21 21 21 21 21 21 21 21 21 21 21 22 22 22 23 22 21 20 20 19 18 17 16 16 16 16 16 16 15 15 14 14 14 14 14 14 14 14 15 15 16 17 18 19 19 20 21 21 22 22 23 24 26 27 29 29 29 29 29 30 31 32 32 31 30 30
24 24 24 24 24 24 24 24 23 23 22 21 21 21 20 20 21 21 21 21 21 21 20 20 20 19 19 19 20 20 20 20 20 21 21 20 19 19 19 19 17 17 17 16 16 16 16 15 14 13 13 12 12 12 12 12 13 13 13 14 15 16 17 18 19 19 20 20 21 21 22 23 24 26 27 27 28 28 28 29 31 32 32 31 31
23 23 23 23 24 24 24 23 23 23 23 23 22 22 22 21 21 21 22 22 22 21 21 20 19 18 18 18 19 20 20 20 20 20 20 20 19 19 19 19 18 17 17 16 16 15 15 15 15 14 13 12 12 12 12 12 12 12 12 13 13 14 15 16 17 18 18 19 19 20 20 21 22 23 24 25 26 26 27 28 29 30 31 32 31
22 22 22 23 23 23 23 23 23 23 23 23 23 23 24 23 23 23 23 23 23 23 23 22 20 19 20 20 20 20 20 20 19 19 19 20 20 19 18 18 18 17 17 16 16 15 15 15 15 14 13 13 12 12 12 13 13 13 13 13 14 14 14 14 15 16 17 18 18 19 19 20 20 21 22 23 23 24 25 26 27 28 29 31 31
21 22 23 23 23 23 23 23 23 23 23 23 23 24 24 24 25 25 24 24 24 24 23 23 22 21 22 23 23 23 23 22 21 21 21 21 20 19 18 18 18 18 17 16 15 15 15 15 15 15 14 14 14 14 14 14 15 15 15 15 15 15 15 15 15 15 15 16 17 17 18 18 19 20 20 21 22 22 23 24 25 26 27 29 30
22 22 23 23 23 23 23 23 23 23 23 23 24 24 24 24 25 25 25 25 25 23 23 24 25 24 24 25 25 25 25 24 24 25 24 23 21 20 19 18 18 18 18 17 16 16 15 15 15 15 15 15 16 16 16 16 16 17 18 18 17 17 17 17 16 16 15 15 15 16 16 17 18 18 19 19 20 21 22 22 23 24 25 26 27
22 22 22 22 22 22 23 23 23 23 24 24 24 25 25 25 25 25 24 25 25 24 24 24 25 25 26 27 27 27 26 25 25 26 26 25 23 22 21 20 18 18 18 18 17 16 16 16 16 15 15 16 16 17 17 17 17 18 18 18 18 18 18 18 17 17 17 16 16 15 15 16 16 17 17 18 18 19 20 20 21 22 23 24 25
21 21 21 21 22 23 23 23 23 24 25 26 26 26 26 26 26 26 26 25 25 25 25 25 25 26 26 27 28 27 26 26 26 26 26 25 24 23 23 22 20 19 18 18 17 17 17 17 17 16 15 16 16 16 16 16 16 16 16 16 16 16 16 16 16 16 17 17 16 16 15 15 15 15 16 16 17 17 18 18 19 20 21 22 23
21 20 21 22 23 23 23 24 25 26 26 27 28 28 28 27 27 27 27 27 26 26 26 26 26 27 27 27 28 28 28 27 26 26 25 24 23 23 23 23 22 20 19 19 18 18 17 18 18 17 16 16 16 16 15 15 15 15 15 14 14 14 13 13 13 14 14 15 16 16 16 15 15 14 14 15 15 15 16 17 17 18 19 20 21
20 20 21 21 22 23 24 25 26 26 27 28 28 28 28 28 28 28 28 28 28 27 27 26 25 25 26 27 28 28 27 27 26 26 25 24 23 23 23 23 22 21 20 19 18 18 18 18 18 18 17 16 16 15 15 15 14 14 14 13 12 12 12 12 12 12 12 12 12 13 14 14 14 14 14 14 14 14 14 15 15 16 17 17 18
19 20 21 21 22 23 25 25 26 26 27 28 29 29 28 28 28 28 28 28 28 28 27 26 25 24 25 26 27 27 27 27 26 25 25 24 23 22 22 22 21 20 19 18 18 18 18 18 18 18 18 17 17 16 16 15 14 14 14 13 12 12 11 11 11 11 11 10 10 9 10 11 12 12 13 14 14 14 14 14 14 15 15 15 16
19 20 21 22 23 24 25 26 26 26 27 27 28 28 28 28 28 28 28 28 28 28 27 27 26 25 25 26 26 27 27 27 26 26 26 25 24 23 22 22 21 20 19 19 18 18 17 18 18 18 18 18 18 18 17 16 15 15 14 14 13 12 12 11 10 10 11 10 10 9 9 9 9 9 10 11 12 13 13 14 14 15 15 15 15
19 20 21 22 23 24 25 26 26 27 27 27 28 28 28 28 28 29 28 28 28 28 28 28 27 27 27 27 27 27 27 27 27 27 26 25 24 24 23 23 22 21 21 20 19 19 18 18 18 18 18 18 18 18 18 18 17 16 16 15 15 14 13 12 11 11 11 11 11 11 10 10 9 9 9 9 10 10 11 12 13 13 14 15 15
20 21 22 23 24 24 25 26 27 27 27 28 28 28 28 28 28 28 28 28 28 28 28 28 28 27 27 28 28 28 28 28 27 27 25 25 24 24 23 23 23 22 21 20 20 20 19 18 18 18 18 18 18 18 18 18 18 18 17 17 16 16 15 14 13 13 12 12 12 12 11 11 11 11 11 11 11 10 10 10 11 11 12 13 14
20 21 23 24 25 25 26 26 27 27 28 28 28 28 28 28 28 28 28 28 28 28 28 29 29 29 29 29 29 29 28 28 28 27 26 25 24 23 23 23 23 22 22 21 21 21 21 20 19 19 19 18 18 18 18 19 19 19 18 18 18 18 17 16 16 15 14 13 13 13 13 12 12 12 12 12 12 12 12 12 12 12 12 13 14
20 22 23 24 25 26 27 28 28 28 27 27 27 27 27 27 27 27 27 28 28 28 29 29 29 30 30 30 30 30 30 30 30 29 28 27 26 24 23 23 23 22 22 22 21 21 21 21 21 20 20 20 19 19 19 19 19 19 19 19 19 19 18 18 18 17 16 15 15 14 14 14 13 13 13 13 13 13 13 13 13 14 14 15 15
22 23 24 25 26 27 28 28 29 29 28 28 27 27 26 26 25 25 25 26 27 28 28 29 29 30 30 31 31 31 31 31 31 31 30 29 28 27 25 24 24 23 23 23 22 21 21 22 22 21 21 21 21 20 20 20 20 19 19 19 20 20 20 20 19 19 18 17 16 16 15 15 15 15 14 14 14 14 14 14 15 15 15 16 16
23 24 25 26 27 28 28 28 29 29 30 29 28 27 26 26 26 25 25 25 25 26 27 28 28 29 29 30 31 32 32 32 31 31 31 30 29 28 27 26 26 25 25 24 24 24 23 22 22 22 22 21 21 21 21 21 21 21 20 20 20 20 20 20 20 20 19 19 18 18 17 17 16 16 16 16 16 16 16 16 16 16 16 17 17
24 25 26 26 27 28 28 29 29 30 30 30 29 29 29 29 29 28 28 28 28 28 28 28 28 28 29 29 30 31 32 33 32 32 31 31 31 30 29 28 27 26 26 25 25 25 25 24 24 23 23 22 22 22 22 21 21 22 22 21 21 21 21 21 21 21 20 20 20 19 19 18 18 18 18 18 17 17 18 18 18 18 18 18 18
25 26 27 27 27 27 28 28 29 30 30 30 30 30 30 30 30 30 30 30 31 31 31 30 31 31 31 31 31 31 32 33 34 34 33 32 31 31 30 29 28 27 27 26 26 26 26 26 25 25 24 23 23 23 22 22 22 22 22 22 22 22 21 21 21 21 21 21 20 20 19 19 19 19 19 19 19 19 19 19 19 19 20 20 20
25 25 26 26 27 27 27 28 28 29 29 30 30 30 30 30 30 30 30 30 30 31 31 31 31 31 31 31 32 32 31 31 32 33 33 33 32 31 30 29 28 27 27 26 26 26 27 26 26 25 25 24 24 23 23 23 22 22 22 23 22 22 22 21 20 20 20 20 20 20 20 20 20 20 20 20 20 20 20 20 21 21 21 21 21
25 25 25 25 25 26 26 27 27 28 28 29 30 31 31 31 31 31 30 30 30 30 30 31 32 32 31 31 31 31 31 31 31 32 32 32 32 32 32 31 30 29 28 27 26 26 27 27 27 26 25 24 24 24 24 23 23 23 23 22 22 22 22 22 21 20 19 20 20 20 20 20 20 20 20 20 21 21 21 22 22 22 22 22 22
Wind_Direction
312 313 315 314 311 309 309 309 310 311 310 309 307 307 306 305 304 304 304 304 304 303 303 302 301 301 300 300 299 298 297 296 295 295 294 293 292 290 288 285 281 278 276 274 274 275 276 276 275 273 272 270 268 268 270 272 273 272 266 260 256 255 255 255 254 255 256 256 257 257 257 259 262 265 270 268 248 233 229 230 231 227 226 228 227
313 313 313 311 308 307 308 309 310 310 310 309 308 308 307 307 307 306 306 306 306 305 303 303 302 301 300 299 298 296 295 293 291 291 290 290 289 288 285 282 278 275 273 272 273 275 276 276 274 274 273 272 271 269 268 269 270 271 272 270 264 257 254 254 253 254 254 254 253 254 255 255 255 257 261 265 263 251 236 230 230 229 228 228 226
315 314 313 311 310 309 309 309 309 309 310 310 309 309 308 308 308 307 306 306 305 304 303 302 302 301 300 299 297 295 293 291 290 288 287 286 285 284 281 278 275 273 271 271 273 274 273 272 272 273 273 273 274 273 270 268 266 266 267 269 270 267 261 255 253 252 253 253 251 250 251 253 252 251 253 257 260 259 249 237 233 232 230 229 228
314 313 311 309 308 308 309 309 309 310 310 310 310 310 309 309 308 307 306 305 304 303 302 302 302 301 300 298 296 294 291 290 288 287 285 283 281 279 276 273 271 269 269 270 270 270 270 270 271 271 272 273 273 271 269 267 266 265 264 265 267 269 268 263 256 251 250 252 253 250 248 249 251 249 248 250 253 254 254 250 243 237 233 230 229
313 311 310 308 309 309 309 310 310 310 310 310 310 310 309 308 306 306 305 304 304 303 302 302 301 300 299 298 294 291 289 288 286 284 282 280 277 274 272 269 267 266 266 267 267 267 267 268 269 269 270 271 271 270 269 268 268 268 267 265 264 265 267 267 264 256 249 249 252 253 249 247 248 249 247 246 248 250 250 251 249 246 240 234 230
314 312 311 311 311 310 310 311 311 311 311 310 310 309 308 307 307 307 306 306 305 304 304 303 301 299 299 297 293 290 289 286 284 282 279 276 273 271 268 267 265 265 265 264 264 264 264 265 266 267 268 269 270 270 270 271 271 271 269 266 263 262 262 263 264 263 257 249 247 250 251 249 247 247 247 246 245 247 248 247 247 248 249 244 236
313 312 312 312 313 314 314 314 313 313 312 311 310 310 310 310 310 310 309 308 307 306 305 303 301 300 299 296 292 291 290 287 283 280 277 274 271 268 266 265 265 264 264 263 263 262 261 261 263 264 266 268 269 271 272 273 274 273 271 267 264 263 261 260 261 263 263 259 251 247 249 250 249 247 247 247 245 244 245 246 244 244 248 249 244
314 314 314 315 316 316 316 315 315 314 313 313 313 313 313 313 312 312 311 310 309 307 306 304 302 301 299 296 294 292 290 287 285 282 278 274 271 268 266 264 263 262 262 262 262 261 259 259 260 262 265 267 269 272 274 275 275 274 273 271 269 266 264 261 259 260 261 262 259 252 247 248 249 249 247 246 245 244 243 244 244 242 242 245 246
315 316 317 317 317 316 316 315 315 315 316 316 316 316 316 315 314 313 312 312 311 309 308 307 305 303 301 298 295 293 290 287 285 282 278 275 272 269 267 264 262 261 260 259 260 259 259 259 260 261 263 265 268 271 274 275 276 276 275 274 273 270 267 264 261 259 259 260 261 258 253 247 247 249 249 247 245 244 243 242 242 242 242 242 243
316 316 316 317 317 317 317 317 317 318 318 318 318 317 316 315 314 313 313 312 312 310 309 308 307 305 303 300 297 294 291 288 284 280 277 274 271 269 267 265 263 261 260 259 258 258 259 260 260 261 262 264 266 269 272 275 276 277 278 277 276 274 271 267 263 260 258 258 259 260 259 255 248 247 248 249 247 245 242 240 239 239 241 242 241
318 318 318 319 319 319 319 319 319 319 319 318 317 316 315 314 313 313 313 312 312 310 309 309 307 306 304 302 299 295 293 289 285 281 276 272 269 267 266 265 264 264 262 261 260 259 259 260 260 261 261 262 264 266 269 272 274 277 278 279 279 277 275 271 268 265 261 259 259 258 259 260 255 248 246 247 248 246 243 240 238 237 237 238 239
319 319 320 320 320 320 320 320 319 318 317 316 315 314 314 314 313 313 313 312 312 311 309 308 306 305 304 301 298 295 293 289 284 280 276 271 267 265 265 264 263 263 262 263 263 262 262 261 261 261 261 261 262 263 266 269 272 275 276 278 279 279 278 277 274 270 266 262 260 258 259 260 259 254 248 245 246 247 246 242 239 236 236 236 236
320 320 320 320 320 319 319 318 317 316 315 315 314 314 314 314 315 314 314 313 312 310 309 307 304 302 301 299 296 294 291 287 284 279 274 270 267 265 264 264 263 262 262 263 264 264 264 264 263 262 261 261 261 262 264 267 270 273 275 277 279 280 280 280 278 275 272 269 265 262 260 260 260 259 254 247 244 245 247 246 242 238 236 236 236
321 320 320 319 319 318 317 316 316 315 315 315 315 316 316 316 316 315 314 312 310 308 307 304 302 300 298 296 294 292 289 286 283 279 274 270 268 266 266 265 264 264 263 263 264 265 265 265 265 263 262 262 261 262 263 265 268 271 274 276 277 279 280 280 279 279 278 275 271 267 264 262 260 260 258 253 247 243 244 246 245 242 238 236 236
320 320 319 319 318 317 317 316 316 316 316 317 317 316 316 315 314 313 312 310 308 307 305 303 301 299 296 294 292 290 288 286 282 279 275 272 270 268 268 267 266 265 264 263 264 265 265 266 266 266 265 263 263 262 263 264 266 269 271 273 275 277 277 278 279 279 278 277 276 273 269 265 263 261 259 257 252 246 243 243 244 245 242 239 237
320 320 319 319 318 318 318 318 318 318 317 317 316 315 314 313 312 311 309 308 307 306 305 304 303 301 298 296 294 292 289 286 283 280 277 274 272 271 270 270 269 268 266 265 265 265 266 266 266 267 267 266 265 264 263 264 265 267 269 271 273 274 275 276 278 278 278 277 277 275 273 270 266 263 261 259 256 252 247 243 242 244 245 242 239
321 321 320 320 320 320 320 320 320 319 319 317 315 314 314 312 311 310 308 308 307 307 308 307 306 305 303 300 298 295 293 289 285 282 278 275 273 272 272 271 271 270 268 266 266 266 266 266 266 266 267 267 266 266 265 265 266 267 268 269 271 272 273 274 276 277 277 277 276 275 274 272 270 266 262 260 257 255 252 247 243 243 245 244 241
322 322 322 322 321 322 322 322 321 321 319 318 316 316 316 314 313 312 311 310 310 310 311 312 311 310 308 305 303 299 296 293 289 285 281 278 275 274 273 272 271 270 269 267 266 266 266 266 266 266 266 266 266 266 266 267 267 267 268 269 270 271 272 273 274 275 276 277 276 275 273 271 270 269 265 262 259 256 253 250 245 242 243 244 244
323 323 323 324 324 324 324 324 323 322 320 318 317 317 317 316 316 316 315 314 314 314 315 315 315 314 313 311 309 305 301 297 293 289 285 281 279 278 276 275 275 273 272 271 269 267 267 266 266 266 266 266 266 266 266 267 268 268 269 270 270 271 272 273 273 274 275 275 276 275 274 271 269 268 267 264 261 257 253 250 248 244 242 243 245
325 326 327 327 327 327 326 326 325 324 322 320 318 317 317 317 318 318 318 317 316 317 318 318 317 316 316 315 314 311 308 303 298 294 290 286 284 282 281 280 279 278 277 275 274 272 270 269 268 268 268 268 268 268 268 268 268 269 269 270 270 271 272 273 273 273 273 274 274 274 273 272 269 266 265 265 262 259 255 252 249 247 245 243 244
329 329 328 328 327 327 327 327 327 325 324 322 320 319 319 320 320 320 320 318 318 319 319 319 319 319 317 316 315 314 312 309 306 302 298 294 291 288 287 285 283 282 280 279 277 276 275 274 273 272 271 271 271 271 271 271 271 271 271 271 271 272 272 273 273 273 273 273 272 272 271 270 268 265 264 263 263 261 258 254 250 248 247 245 243
330 329 329 329 329 330 329 329 328 327 325 323 322 322 322 323 324 324 322 320 319 318 318 319 319 319 318 316 315 314 312 310 309 307 304 301 298 294 292 289 287 285 283 282 280 279 279 278 277 276 276 275 275 275 275 274 274 274 274 274 274 274 273 273 273 273 273 273 271 270 268 267 265 263 262 261 261 262 261 257 252 249 248 246 244
331 332 333 333 334 333 332 332 331 329 328 326 325 324 325 326 326 326 324 321 318 317 318 319 318 317 317 316 315 313 312 310 309 307 306 304 301 299 295 292 289 287 285 284 283 282 282 281 280 280 279 278 278 277 277 276 276 276 275 275 275 274 274 274 273 273 272 272 271 268 266 264 262 260 259 259 259 260 261 259 256 251 247 246 245
336 337 338 338 338 338 337 336 335 334 333 332 331 329 328 328 328 328 326 322 320 319 319 319 317 316 316 315 314 313 312 310 309 308 307 305 304 302 299 296 293 291 290 288 287 286 285 284 283 281 280 279 279 278 278 277 276 276 275 275 274 274 273 273 272 271 270 270 269 266 264 263 261 259 257 257 257 257 258 259 258 254 248 245 244
340 341 342 342 342 342 342 341 341 341 339 339 339 337 335 332 331 331 328 326 324 323 321 319 318 317 316 315 314 313 311 309 308 306 305 304 302 299 297 296 295 294 293 292 291 289 287 286 284 283 281 280 279 278 278 277 276 275 275 274 273 272 272 271 270 269 269 268 267 265 263 262 261 259 257 256 255 255 256 256 257 255 252 247 244
343 343 343 342 342 344 345 345 346 346 345 345 345 343 341 339 336 334 332 330 328 325 322 320 319 318 317 316 314 313 312 311 311 310 308 307 303 299 298 299 299 299 298 297 295 293 291 289 287 285 283 281 280 278 277 277 276 275 275 274 273 272 271 270 268 267 266 266 264 263 261 261 260 259 257 255 254 254 254 254 255 255 254 251 246
344 344 344 344 344 345 347 348 349 348 346 346 346 344 343 341 339 338 336 332 329 326 324 323 322 321 321 320 320 320 320 320 320 319 318 315 310 306 305 305 304 302 300 298 296 294 292 290 289 287 286 284 282 281 279 278 277 276 276 275 274 273 272 271 269 268 266 265 264 261 259 259 259 259 258 256 254 254 253 253 253 253 253 252 250
346 347 348 347 347 347 348 348 349 347 346 345 344 342 341 339 338 336 334 331 329 328 327 326 326 326 327 328 329 331 332 332 331 330 330 328 322 316 314 311 307 303 301 300 299 299 298 296 295 293 291 289 287 286 284 283 282 281 280 279 278 277 275 273 272 270 268 267 264 261 259 257 258 258 258 256 255 254 253 252 252 252 251 251 251
350 351 350 350 349 350 351 352 352 351 349 347 346 344 342 341 338 336 334 333 332 331 331 331 331 333 334 334 335 337 337 336 333 333 335 334 328 323 320 318 315 313 312 312 311 311 310 307 305 303 300 298 295 293 292 291 290 289 289 287 286 284 282 279 276 274 272 270 267 263 260 258 257 257 257 257 255 254 253 252 252 251 250 249 249
356 356 355 355 356 356 358 358 358 357 356 354 353 352 351 349 346 343 341 340 339 338 337 336 336 337 336 335 336 336 336 333 331 333 336 336 332 327 324 324 323 322 321 321 320 319 317 315 314 312 309 306 303 301 300 300 299 297 295 293 291 289 287 284 282 279 277 275 272 268 264 260 259 258 257 257 256 255 253 252 251 251 250 249 248
359 0 1 1 2 2 2 2 1 1 360 359 358 358 357 354 351 348 347 345 343 340 338 337 337 337 336 333 332 331 332 332 331 331 333 335 335 332 329 328 328 326 324 323 321 320 319 318 317 315 312 310 310 309 309 308 306 304 302 299 297 294 291 288 285 283 281 279 276 273 269 265 262 260 258 257 256 255 254 252 251 251 250 249 248
1 2 3 4 5 5 3 2 1 1 1 0 359 358 357 355 352 350 348 346 344 341 338 335 332 331 332 333 332 331 331 331 330 329 329 332 334 333 331 330 330 328 326 323 321 319 317 316 314 312 311 312 312 312 311 310 308 308 307 306 304 301 297 294 289 286 284 282 280 277 274 270 267 263 261 259 257 255 254 252 251 250 250 250 249
3 4 4 5 5 4 2 1 1 0 360 359 357 355 354 352 350 349 348 346 344 342 340 337 331 327 327 331 335 337 336 333 330 327 325 326 328 329 328 329 330 329 326 323 322 320 317 314 312 310 309 309 307 306 306 305 306 306 307 307 307 306 303 300 295 291 287 284 282 280 277 274 271 268 265 262 260 258 255 253 251 250 249 249 249
4 4 4 4 3 2 0 360 360 359 358 357 356 354 353 351 349 347 347 346 344 343 341 338 334 330 326 327 330 333 335 336 336 333 329 325 322 322 324 326 327 326 324 322 321 319 317 314 312 310 309 307 304 302 301 301 301 301 301 301 301 301 300 299 297 295 292 288 284 281 278 276 274 272 269 267 264 261 259 256 254 252 250 249 248
3 3 2 1 1 1 1 1 1 -0 360 359 357 355 354 352 350 349 348 347 346 345 341 339 337 334 330 327 327 329 332 334 336 337 338 333 326 320 320 322 324 323 321 321 321 320 317 314 312 311 309 306 304 302 300 299 299 298 298 296 295 294 293 292 292 291 291 289 287 284 281 278 275 273 271 269 267 265 262 260 257 255 253 251 250
0 360 359 359 0 2 3 2 1 0 0 0 360 358 356 355 353 352 351 349 348 346 343 342 341 340 337 334 333 333 334 332 331 333 337 337 332 326 321 319 319 318 316 317 317 317 315 312 310 310 309 308 306 305 303 303 302 301 299 298 296 294 291 289 287 286 285 285 285 284 283 281 278 276 273 270 268 266 265 263 261 259 257 255 254
357 357 359 0 1 3 2 0 -0 0 1 1 1 1 359 357 355 354 354 353 350 347 345 345 344 343 341 339 336 336 337 335 333 334 336 336 335 332 326 322 319 315 312 313 313 313 313 311 308 307 307 308 308 308 308 308 308 307 306 305 303 301 299 295 291 287 283 281 280 279 279 279 279 278 276 274 272 269 267 265 263 261 260 259 257
354 356 -0 1 1 -0 358 358 359 0 0 1 1 1 359 358 357 356 356 354 353 351 351 352 349 345 342 342 339 337 338 339 338 338 338 336 336 334 330 327 323 317 313 312 312 311 310 309 306 305 304 305 307 308 309 310 311 311 311 311 311 312 311 310 306 300 292 285 280 277 276 275 275 276 276 275 274 272 270 268 266 264 262 260 259
353 357 0 1 359 356 355 356 358 359 359 360 360 360 358 357 357 357 356 355 355 354 354 355 354 347 342 341 341 340 340 340 340 340 340 340 339 337 333 330 328 324 319 314 311 309 307 305 303 303 302 302 303 304 305 307 308 309 309 310 312 314 317 319 319 317 310 301 292 284 280 277 275 274 274 273 273 273 272 271 269 267 265 263 261
353 356 358 359 357 354 353 354 356 357 358 358 358 358 357 357 357 357 356 355 355 356 355 355 355 350 344 341 341 341 341 341 341 342 343 343 343 340 335 331 329 328 325 320 314 310 306 303 302 302 301 300 300 300 300 302 303 303 304 305 306 309 313 316 319 321 320 317 312 305 298 290 284 278 275 272 271 271 270 270 269 268 267 266 264
353 354 355 356 355 354 352 352 353 354 356 357 357 356 356 356 357 357 357 355 356 356 356 356 355 353 348 345 343 342 341 340 340 342 344 344 345 344 341 336 332 330 328 325 321 316 311 306 303 301 300 300 299 298 297 297 297 297 298 299 300 301 303 306 309 312 313 314 315 315 315 311 304 295 287 280 276 272 269 267 266 266 266 266 266
352 351 352 353 353 352 351 350 350 352 354 355 355 355 355 356 357 356 356 356 356 356 356 356 356 354 352 350 349 347 344 342 341 341 341 341 342 343 343 341 338 335 331 327 324 321 318 313 308 303 300 299 298 298 297 295 294 294 294 294 294 294 295 296 298 300 302 304 305 306 308 308 307 304 301 296 290 283 276 271 268 266 266 266 266
348 348 350 351 350 350 350 349 350 351 351 351 353 354 354 355 356 355 354 355 356 356 356 355 355 354 353 353 352 351 349 347 345 344 342 340 339 339 339 338 337 336 334 331 327 324 321 318 314 310 306 302 299 298 296 295 293 292 291 290 290 289 290 290 290 291 293 295 297 298 299 300 300 299 299 297 295 292 288 283 279 276 273 271 270
347 347 348 348 348 348 349 349 349 349 349 349 350 351 352 354 354 354 353 354 356 356 355 354 353 354 354 354 354 353 351 350 349 348 346 344 341 338 336 334 333 333 333 332 330 327 323 320 318 315 312 308 305 301 298 295 293 291 290 289 288 286 286 286 286 286 287 288 290 293 294 294 294 295 295 295 294 292 290 288 285 283 280 278 276
348 347 347 347 347 347 348 348 348 348 347 347 349 350 352 352 352 351 352 354 355 355 355 354 353 353 353 354 353 353 353 352 352 351 350 349 345 342 338 335 333 331 329 328 327 325 323 321 320 317 314 312 309 307 303 300 296 292 290 288 287 285 284 283 283 283 284 284 285 287 289 290 291 292 292 294 294 293 292 289 287 285 283 282 280
348 347 347 346 346 347 348 347 345 346 347 348 349 350 350 350 349 350 352 354 355 354 354 353 353 352 352 353 353 353 353 353 352 351 351 351 348 345 341 338 335 333 330 327 324 322 321 320 319 318 316 314 311 308 306 304 301 298 294 290 288 285 284 282 281 281 281 281 281 282 284 286 288 289 290 291 292 292 292 292 291 289 288 286 284
347 347 347 346 346 347 346 345 344 346 348 349 348 348 348 348 349 351 352 353 354 355 354 353 352 352 353 353 353 352 352 352 352 351 351 350 349 347 345 341 338 335 332 329 326 323 320 317 315 314 314 313 312 310 307 305 303 302 299 296 292 288 284 282 280 279 279 279 280 280 281 282 284 285 287 288 289 290 290 290 291 291 290 288 287
347 346 345 345 346 345 344 344 346 349 349 348 347 348 350 350 350 350 350 351 354 355 355 353 353 353 355 355 354 351 349 350 351 351 351 350 349 348 346 344 340 337 334 332 329 326 323 319 314 311 309 309 308 308 308 306 305 303 300 297 295 291 287 283 281 279 278 278 279 280 281 282 283 284 285 286 287 288 288 288 289 289 289 288 288
345 345 344 344 345 345 344 346 348 350 349 348 349 350 351 351 351 350 348 349 350 352 352 352 352 353 354 354 353 352 350 349 349 349 349 349 348 348 346 344 342 339 336 334 332 330 327 323 318 312 308 305 304 304 304 306 306 304 301 298 295 293 291 287 283 281 280 279 279 280 281 282 283 284 285 286 287 287 288 288 288 288 288 288 288
344 344 343 343 344 345 346 347 349 349 349 349 350 351 352 352 351 349 347 347 347 348 348 349 350 350 351 351 351 351 350 349 347 346 346 346 346 346 345 344 343 341 338 335 334 332 331 328 323 317 311 306 302 299 299 301 302 303 302 300 297 293 290 289 286 284 283 282 281 282 282 283 283 284 284 286 287 287 287 288 289 288 288 288 288
343 343 343 344 344 345 346 347 347 348 348 349 350 352 353 353 352 349 347 346 346 346 346 346 346 347 349 351 350 349 349 348 346 345 344 344 343 344 344 345 344 343 341 338 336 335 335 334 331 326 319 312 305 299 296 295 296 297 299 301 299 295 291 288 287 286 285 284 283 283 283 283 284 284 284 285 286 287 287 288 288 288 288 288 288
Height
5842 5840 5839 5838 5836 5834 5833 5831 5829 5827 5825 5823 5821 5819 5818 5817 5815 5813 5812 5811 5810 5808 5807 5806 5805 5804 5803 5802 5801 5800 5799 5798 5798 5797 5796 5795 5795 5795 5794 5794 5794 5794 5793 5794 5793 5793 5794 5794 5795 5795 5795 5796 5797 5797 5798 5798 5798 5799 5801 5802 5804 5804 5805 5806 5808 5808 5809 5811 5813 5814 5815 5815 5816 5816 5817 5819 5820 5822 5823 5825 5828 5830 5831 5833 5835
5840 5837 5836 5835 5833 5831 5830 5828 5825 5823 5821 5819 5817 5815 5813 5812 5810 5809 5807 5806 5805 5803 5802 5801 5800 5799 5798 5797 5796 5795 5795 5794 5793 5793 5792 5791 5790 5790 5790 5790 5789 5790 5790 5789 5790 5790 5790 5790 5791 5791 5791 5792 5793 5794 5795 5795 5795 5795 5796 5797 5798 5800 5800 5802 5803 5804 5804 5806 5808 5810 5811 5811 5812 5813 5813 5814 5817 5819 5821 5822 5824 5825 5827 5830 5831
5836 5835 5833 5831 5829 5827 5826 5824 5821 5819 5817 5815 5813 5811 5809 5807 5806 5804 5802 5801 5800 5798 5796 5796 5794 5793 5792 5792 5791 5789 5789 5788 5788 5788 5787 5787 5786 5786 5786 5785 5785 5785 5785 5786 5786 5786 5786 5786 5787 5787 5787 5788 5789 5790 5790 5790 5791 5791 5791 5792 5793 5794 5796 5797 5798 5799 5800 5800 5802 5804 5806 5807 5807 5809 5810 5810 5813 5816 5818 5819 5820 5821 5824 5826 5827
5833 5832 5830 5829 5826 5824 5821 5819 5817 5815 5813 5810 5808 5806 5804 5803 5801 5799 5797 5796 5795 5793 5791 5790 5789 5788 5787 5787 5786 5784 5784 5783 5783 5783 5782 5782 5782 5781 5781 5781 5781 5781 5782 5782 5783 5782 5782 5782 5783 5783 5783 5784 5785 5785 5785 5785 5786 5787 5787 5788 5789 5789 5790 5791 5793 5794 5795 5795 5796 5799 5801 5802 5803 5804 5806 5807 5808 5811 5814 5816 5817 5818 5820 5822 5824
5831 5828 5826 5824 5822 5820 5818 5815 5812 5810 5808 5806 5804 5802 5800 5798 5796 5795 5793 5791 5790 5788 5786 5785 5784 5783 5782 5782 5781 5780 5779 5779 5778 5778 5777 5777 5777 5777 5777 5777 5777 5777 5778 5778 5778 5778 5778 5779 5779 5779 5779 5780 5780 5780 5780 5781 5781 5782 5783 5784 5785 5785 5785 5786 5787 5789 5790 5791 5791 5793 5795 5797 5798 5799 5801 5803 5804 5806 5809 5811 5813 5814 5816 5819 5822
5827 5824 5821 5819 5817 5815 5813 5811 5808 5806 5803 5801 5799 5798 5796 5793 5792 5790 5788 5786 5785 5783 5782 5781 5779 5778 5778 5777 5776 5775 5775 5774 5774 5773 5773 5772 5772 5772 5772 5772 5773 5773 5773 5774 5774 5774 5775 5775 5775 5775 5775 5776 5776 5776 5776 5776 5777 5778 5779 5779 5780 5780 5781 5781 5781 5782 5784 5786 5787 5788 5789 5791 5792 5794 5796 5798 5800 5802 5804 5806 5809 5810 5812 5815 5818
5822 5820 5817 5814 5812 5809 5807 5805 5802 5800 5798 5796 5794 5793 5791 5789 5787 5785 5783 5781 5780 5778 5777 5776 5774 5773 5773 5772 5770 5770 5770 5770 5769 5769 5768 5768 5768 5768 5768 5768 5768 5768 5769 5769 5769 5770 5770 5771 5771 5771 5771 5771 5771 5771 5772 5772 5773 5774 5774 5774 5775 5775 5776 5777 5777 5778 5779 5780 5782 5783 5784 5785 5787 5789 5791 5793 5795 5797 5799 5801 5804 5806 5807 5809 5813
5817 5815 5812 5809 5806 5803 5801 5799 5797 5795 5793 5791 5789 5787 5785 5783 5782 5780 5778 5776 5775 5773 5772 5771 5769 5769 5769 5767 5766 5766 5765 5765 5764 5764 5763 5763 5763 5763 5763 5763 5764 5764 5764 5764 5764 5765 5766 5766 5766 5767 5767 5767 5767 5767 5767 5768 5768 5769 5769 5769 5770 5771 5771 5772 5773 5773 5774 5774 5776 5778 5779 5780 5782 5784 5786 5788 5790 5792 5794 5797 5799 5801 5802 5804 5808
5812 5809 5807 5804 5802 5799 5796 5794 5792 5790 5788 5786 5783 5782 5780 5778 5776 5774 5773 5771 5770 5768 5767 5766 5765 5764 5763 5763 5761 5761 5761 5760 5760 5759 5759 5759 5758 5758 5758 5759 5759 5759 5759 5759 5760 5760 5761 5761 5762 5762 5762 5762 5763 5763 5763 5763 5763 5764 5764 5764 5765 5766 5767 5767 5768 5768 5769 5769 5770 5771 5773 5775 5777 5778 5780 5782 5784 5787 5789 5792 5794 5796 5798 5800 5803
5808 5805 5803 5800 5797 5794 5791 5788 5786 5785 5783 5780 5778 5776 5775 5773 5771 5770 5768 5766 5765 5763 5762 5761 5760 5759 5758 5758 5757 5756 5756 5756 5755 5755 5754 5754 5754 5753 5754 5754 5754 5754 5755 5755 5755 5756 5756 5757 5757 5757 5757 5758 5758 5758 5758 5758 5759 5759 5759 5759 5760 5761 5762 5762 5762 5763 5764 5764 5764 5765 5767 5769 5772 5773 5774 5776 5778 5780 5783 5786 5789 5791 5793 5795 5797
5803 5800 5798 5795 5792 5790 5787 5784 5781 5779 5778 5775 5774 5772 5770 5769 5767 5765 5764 5762 5761 5759 5758 5757 5756 5755 5754 5754 5753 5752 5751 5751 5751 5750 5750 5750 5750 5749 5749 5750 5750 5750 5750 5750 5751 5752 5752 5753 5753 5753 5753 5753 5754 5754 5754 5754 5754 5754 5755 5754 5755 5756 5757 5757 5757 5758 5759 5759 5759 5760 5761 5763 5765 5768 5770 5770 5771 5773 5776 5779 5782 5785 5787 5789 5791
5799 5796 5793 5791 5788 5786 5783 5780 5777 5775 5774 5772 5770 5768 5766 5765 5763 5761 5760 5758 5757 5755 5754 5753 5752 5751 5750 5750 5749 5748 5747 5747 5746 5746 5746 5746 5746 5746 5746 5746 5746 5746 5746 5746 5747 5747 5748 5748 5749 5749 5749 5749 5749 5749 5750 5750 5750 5750 5750 5750 5750 5751 5751 5752 5752 5753 5753 5754 5754 5755 5756 5757 5758 5761 5764 5765 5766 5767 5769 5772 5776 5779 5781 5783 5785
5795 5792 5790 5787 5785 5782 5780 5778 5775 5772 5770 5768 5766 5764 5762 5761 5759 5757 5756 5754 5753 5752 5750 5749 5748 5747 5747 5746 5745 5744 5744 5743 5743 5743 5742 5742 5742 5742 5742 5742 5742 5742 5743 5743 5743 5743 5744 5744 5745 5745 5745 5745 5745 5745 5745 5746 5745 5746 5746 5746 5746 5746 5747 5747 5747 5748 5749 5749 5749 5750 5751 5752 5753 5755 5758 5760 5761 5762 5763 5766 5769 5772 5775 5778 5780
5792 5789 5786 5784 5781 5779 5777 5775 5772 5769 5767 5765 5763 5761 5759 5757 5755 5754 5752 5751 5749 5748 5747 5746 5745 5744 5743 5742 5741 5740 5740 5739 5739 5739 5739 5739 5739 5739 5739 5739 5739 5739 5739 5739 5739 5740 5740 5741 5741 5741 5741 5741 5741 5741 5741 5741 5741 5741 5742 5742 5742 5743 5743 5742 5742 5743 5744 5744 5745 5745 5746 5747 5748 5749 5751 5754 5756 5757 5758 5759 5762 5765 5769 5772 5774
5789 5786 5783 5780 5778 5775 5773 5771 5769 5766 5764 5761 5759 5757 5756 5754 5752 5750 5749 5747 5746 5745 5743 5742 5741 5740 5739 5739 5738 5737 5736 5736 5736 5735 5735 5735 5735 5735 5735 5735 5735 5736 5736 5736 5736 5736 5736 5737 5737 5737 5737 5737 5737 5737 5737 5737 5737 5737 5737 5737 5738 5738 5739 5738 5738 5739 5739 5739 5740 5741 5741 5742 5743 5744 5746 5748 5750 5751 5753 5754 5756 5759 5762 5765 5767
5785 5782 5779 5776 5774 5772 5769 5767 5765 5763 5760 5758 5756 5754 5753 5751 5749 5747 5746 5744 5743 5742 5740 5739 5738 5737 5736 5735 5735 5734 5733 5733 5732 5732 5732 5732 5732 5732 5732 5732 5732 5732 5732 5732 5732 5732 5732 5733 5733 5733 5733 5733 5733 5733 5733 5733 5733 5733 5733 5733 5734 5734 5734 5734 5734 5734 5735 5735 5736 5736 5736 5737 5738 5739 5740 5742 5744 5746 5748 5749 5751 5753 5755 5757 5759
5781 5779 5776 5773 5770 5768 5766 5763 5761 5759 5757 5755 5753 5751 5750 5748 5746 5745 5743 5742 5740 5739 5738 5737 5736 5734 5733 5733 5732 5731 5730 5730 5729 5729 5729 5728 5728 5728 5728 5728 5728 5728 5728 5728 5729 5728 5728 5728 5729 5729 5728 5728 5729 5729 5729 5729 5729 5729 5729 5729 5729 5729 5730 5730 5730 5730 5730 5731 5731 5731 5732 5732 5733 5734 5735 5736 5738 5740 5742 5744 5746 5747 5748 5750 5752
5779 5776 5773 5771 5768 5765 5763 5760 5758 5756 5754 5752 5750 5749 5747 5745 5744 5742 5741 5739 5738 5737 5735 5734 5733 5732 5731 5730 5729 5728 5728 5727 5726 5726 5726 5725 5725 5725 5725 5725 5725 5725 5725 5725 5725 5725 5724 5724 5724 5724 5724 5724 5724 5724 5724 5724 5724 5725 5725 5725 5725 5725 5725 5725 5726 5726 5726 5726 5726 5726 5727 5727 5728 5729 5730 5731 5732 5734 5736 5738 5740 5741 5742 5744 5746
5776 5773 5771 5768 5765 5762 5760 5758 5755 5753 5751 5749 5748 5746 5744 5743 5741 5740 5738 5737 5736 5735 5733 5732 5731 5730 5729 5728 5727 5726 5725 5724 5724 5723 5723 5722 5722 5722 5722 5722 5722 5721 5721 5721 5721 5721 5721 5721 5720 5720 5720 5720 5720 5720 5720 5720 5720 5720 5720 5720 5720 5720 5720 5721 5721 5721 5721 5721 5721 5721 5722 5722 5723 5724 5725 5726 5727 5728 5730 5732 5734 5735 5737 5739 5740
5774 5771 5768 5765 5763 5760 5758 5755 5753 5751 5749 5747 5745 5743 5742 5740 5739 5737 5736 5735 5734 5733 5732 5730 5729 5728 5727 5726 5725 5724 5723 5722 5721 5721 5720 5720 5719 5719 5719 5718 5718 5718 5718 5717 5717 5717 5717 5717 5716 5716 5716 5716 5716 5715 5715 5715 5715 5715 5715 5715 5715 5715 5715 5716 5716 5716 5716 5716 5716 5716 5717 5717 5717 5718 5720 5720 5721 5722 5724 5726 5727 5729 5731 5733 5734
5771 5768 5766 5763 5760 5758 5755 5753 5751 5749 5747 5745 5743 5741 5740 5738 5737 5735 5734 5733 5732 5731 5730 5729 5727 5726 5725 5724 5723 5722 5721 5720 5719 5718 5718 5717 5717 5716 5715 5715 5714 5714 5714 5713 5713 5713 5713 5712 5712 5712 5712 5711 5711 5711 5711 5710 5710 5710 5710 5710 5710 5710 5710 5710 5710 5710 5710 5710 5711 5711 5711 5711 5712 5713 5714 5714 5716 5717 5718 5719 5721 5722 5725 5727 5729
5769 5766 5763 5761 5758 5756 5753 5751 5749 5747 5745 5743 5741 5739 5738 5737 5735 5734 5732 5731 5730 5729 5728 5727 5726 5724 5723 5722 5721 5720 5719 5718 5717 5716 5715 5715 5714 5713 5712 5712 5711 5710 5710 5709 5709 5709 5708 5708 5707 5707 5707 5707 5706 5706 5706 5705 5705 5705 5705 5705 5705 5705 5705 5705 5705 5705 5705 5705 5705 5705 5706 5706 5706 5707 5708 5709 5710 5711 5712 5713 5715 5716 5718 5720 5723
5767 5764 5761 5758 5756 5754 5751 5749 5747 5745 5743 5741 5739 5738 5736 5735 5733 5732 5731 5730 5728 5727 5726 5725 5724 5723 5721 5720 5719 5718 5717 5716 5715 5714 5713 5712 5711 5710 5709 5708 5707 5707 5706 5705 5705 5704 5704 5703 5703 5702 5702 5701 5701 5701 5700 5700 5700 5700 5700 5699 5699 5699 5699 5699 5699 5699 5699 5699 5699 5699 5700 5700 5701 5702 5703 5704 5705 5706 5707 5708 5709 5710 5712 5714 5716
5765 5762 5759 5757 5754 5752 5750 5747 5745 5743 5741 5739 5738 5736 5735 5733 5732 5730 5729 5728 5726 5725 5724 5723 5722 5721 5720 5718 5717 5716 5715 5714 5713 5711 5710 5709 5708 5706 5705 5704 5703 5702 5701 5701 5700 5700 5699 5698 5698 5697 5697 5696 5696 5695 5695 5695 5695 5694 5694 5694 5694 5693 5693 5693 5693 5693 5693 5693 5693 5694 5694 5695 5696 5697 5697 5698 5700 5700 5701 5702 5704 5705 5706 5708 5709
5763 5760 5758 5756 5753 5751 5749 5747 5744 5742 5740 5738 5736 5735 5733 5732 5730 5729 5727 5726 5724 5723 5722 5721 5720 5719 5717 5716 5715 5714 5713 5711 5710 5709 5708 5706 5705 5703 5701 5700 5699 5698 5697 5696 5696 5695 5694 5693 5693 5692 5692 5691 5691 5691 5690 5690 5689 5689 5688 5688 5688 5688 5688 5687 5687 5687 5687 5687 5688 5688 5689 5689 5690 5691 5692 5693 5694 5695 5696 5697 5699 5700 5701 5702 5704
5762 5760 5757 5754 5752 5750 5748 5746 5744 5741 5739 5737 5735 5734 5732 5730 5729 5727 5726 5724 5723 5722 5720 5719 5718 5717 5715 5714 5713 5712 5710 5709 5707 5706 5705 5703 5701 5699 5698 5696 5695 5694 5693 5692 5691 5690 5690 5689 5688 5688 5687 5687 5686 5686 5685 5685 5684 5684 5683 5683 5682 5682 5682 5682 5682 5682 5682 5682 5682 5683 5683 5684 5685 5686 5687 5688 5689 5690 5691 5692 5694 5695 5696 5697 5698
5761 5759 5756 5753 5751 5749 5747 5745 5743 5741 5738 5736 5735 5733 5731 5729 5728 5726 5724 5723 5721 5720 5718 5717 5716 5714 5713 5711 5710 5709 5707 5706 5704 5703 5701 5700 5698 5696 5695 5694 5692 5691 5690 5689 5687 5687 5686 5685 5684 5683 5683 5682 5681 5681 5681 5680 5679 5679 5678 5678 5677 5677 5677 5676 5676 5676 5676 5676 5677 5677 5678 5679 5679 5680 5681 5683 5684 5685 5686 5687 5689 5690 5691 5692 5693
5760 5757 5755 5752 5750 5748 5746 5744 5742 5740 5738 5736 5734 5732 5730 5728 5726 5725 5723 5721 5720 5718 5716 5715 5713 5712 5710 5709 5707 5706 5704 5702 5701 5699 5698 5697 5695 5693 5692 5691 5689 5688 5687 5685 5684 5683 5682 5681 5680 5679 5679 5678 5677 5677 5676 5676 5675 5675 5674 5674 5673 5673 5672 5672 5671 5671 5671 5671 5672 5672 5673 5673 5674 5675 5676 5677 5678 5680 5681 5682 5684 5685 5686 5688 5688
5759 5757 5754 5752 5749 5747 5745 5743 5741 5739 5737 5735 5733 5731 5729 5727 5725 5723 5721 5720 5718 5716 5715 5713 5712 5710 5708 5707 5705 5703 5702 5700 5698 5697 5695 5694 5692 5691 5689 5688 5687 5685 5684 5683 5681 5680 5679 5678 5677 5676 5675 5675 5674 5673 5673 5672 5672 5671 5671 5670 5670 5669 5669 5668 5668 5667 5667 5667 5667 5667 5668 5668 5669 5670 5671 5672 5673 5674 5676 5677 5679 5680 5681 5683 5684
5759 5756 5754 5751 5749 5747 5745 5743 5741 5739 5737 5735 5733 5731 5729 5727 5725 5722 5721 5719 5717 5715 5713 5712 5710 5709 5707 5705 5703 5702 5701 5699 5697 5695 5694 5692 5691 5689 5687 5686 5684 5683 5681 5680 5679 5678 5677 5676 5675 5674 5673 5672 5672 5671 5670 5670 5669 5669 5668 5667 5667 5666 5665 5665 5664 5664 5663 5663 5663 5663 5663 5664 5664 5665 5666 5667 5668 5669 5671 5672 5673 5675 5676 5678 5679
5758 5756 5754 5751 5749 5746 5744 5742 5740 5738 5736 5735 5733 5731 5729 5727 5724 5722 5720 5718 5716 5714 5712 5711 5709 5708 5706 5704 5703 5701 5700 5698 5696 5694 5692 5691 5689 5687 5686 5684 5682 5681 5679 5678 5677 5676 5675 5674 5673 5672 5671 5670 5670 5669 5668 5668 5667 5666 5666 5665 5664 5663 5663 5662 5661 5660 5660 5660 5659 5659 5659 5660 5660 5661 5661 5662 5663 5664 5666 5667 5668 5669 5671 5673 5674
5758 5756 5754 5751 5749 5746 5744 5742 5740 5738 5736 5734 5732 5730 5729 5727 5724 5722 5720 5718 5716 5714 5712 5710 5708 5706 5705 5703 5702 5700 5698 5696 5695 5693 5691 5690 5688 5686 5684 5682 5681 5679 5678 5676 5675 5674 5673 5672 5671 5670 5669 5668 5668 5667 5666 5666 5665 5664 5664 5663 5662 5661 5660 5659 5658 5658 5657 5657 5656 5656 5656 5656 5656 5656 5657 5658 5659 5660 5661 5662 5663 5664 5666 5667 5669
5758 5756 5754 5751 5749 5747 5745 5743 5741 5738 5736 5734 5732 5730 5728 5726 5724 5722 5720 5717 5715 5713 5711 5708 5706 5704 5703 5702 5700 5699 5697 5695 5693 5691 5690 5688 5686 5684 5683 5681 5679 5678 5676 5675 5673 5672 5671 5670 5669 5668 5668 5667 5666 5665 5665 5664 5663 5662 5662 5661 5660 5659 5658 5657 5656 5655 5655 5654 5653 5653 5653 5653 5652 5653 5653 5654 5654 5655 5656 5657 5658 5659 5661 5662 5663
5758 5756 5754 5752 5750 5748 5746 5743 5741 5739 5737 5734 5732 5730 5727 5725 5723 5721 5719 5717 5715 5712 5710 5707 5705 5703 5701 5700 5698 5697 5695 5694 5692 5690 5688 5686 5684 5682 5680 5679 5677 5676 5675 5673 5672 5671 5670 5669 5668 5667 5666 5665 5664 5663 5663 5662 5661 5660 5659 5658 5658 5657 5656 5655 5654 5653 5652 5652 5651 5650 5650 5650 5649 5649 5649 5650 5650 5651 5652 5653 5654 5655 5656 5657 5658
5758 5756 5754 5752 5750 5748 5746 5744 5742 5739 5737 5735 5732 5730 5727 5725 5723 5720 5718 5716 5714 5712 5710 5707 5705 5702 5700 5698 5696 5694 5693 5691 5690 5688 5686 5684 5681 5679 5678 5677 5675 5674 5672 5671 5670 5669 5668 5667 5666 5665 5664 5663 5662 5661 5660 5660 5658 5657 5657 5656 5655 5654 5653 5653 5652 5651 5650 5649 5648 5648 5647 5647 5647 5646 5646 5646 5646 5647 5647 5648 5649 5650 5651 5652 5654
5758 5756 5754 5753 5751 5749 5746 5744 5742 5739 5737 5735 5732 5730 5727 5725 5722 5720 5718 5715 5713 5710 5708 5706 5704 5702 5699 5696 5695 5693 5691 5689 5688 5686 5684 5682 5679 5677 5675 5674 5673 5672 5670 5669 5668 5667 5666 5665 5664 5663 5662 5661 5660 5659 5658 5657 5656 5655 5654 5653 5652 5651 5650 5650 5649 5648 5648 5647 5646 5646 5645 5644 5644 5644 5643 5643 5643 5644 5644 5644 5645 5646 5647 5648 5649
5759 5757 5755 5753 5751 5749 5746 5744 5742 5739 5737 5734 5732 5729 5727 5724 5722 5719 5717 5715 5712 5710 5708 5705 5703 5701 5698 5696 5694 5692 5690 5688 5686 5684 5682 5680 5678 5676 5673 5672 5670 5669 5668 5667 5666 5665 5664 5663 5662 5661 5660 5659 5658 5657 5656 5655 5653 5652 5651 5650 5649 5648 5647 5647 5646 5645 5645 5644 5644 5643 5643 5642 5642 5641 5641 5641 5641 5641 5641 5641 5642 5642 5643 5644 5645
5759 5757 5755 5752 5750 5748 5746 5744 5741 5739 5736 5734 5731 5729 5726 5723 5721 5718 5716 5714 5711 5709 5707 5704 5702 5699 5697 5695 5693 5690 5688 5686 5684 5682 5680 5678 5676 5674 5672 5670 5668 5667 5666 5665 5664 5663 5662 5661 5660 5659 5658 5657 5656 5655 5654 5653 5652 5650 5649 5648 5647 5646 5645 5644 5643 5643 5642 5641 5641 5641 5640 5640 5639 5639 5639 5638 5638 5638 5638 5638 5638 5639 5639 5640 5641
5759 5757 5755 5753 5750 5748 5746 5744 5741 5739 5736 5733 5730 5728 5725 5723 5720 5718 5715 5713 5710 5708 5706 5704 5702 5700 5697 5694 5692 5689 5687 5684 5682 5680 5678 5677 5675 5672 5670 5668 5667 5665 5664 5663 5662 5661 5660 5659 5658 5657 5656 5655 5654 5653 5652 5651 5650 5649 5648 5647 5646 5645 5644 5642 5641 5641 5640 5639 5639 5638 5638 5637 5637 5637 5636 5636 5636 5636 5636 5636 5636 5636 5636 5637 5637
5758 5756 5754 5753 5750 5748 5746 5743 5741 5738 5736 5733 5730 5728 5725 5722 5720 5717 5715 5712 5710 5707 5705 5703 5701 5700 5697 5693 5691 5688 5685 5683 5681 5679 5677 5675 5673 5671 5669 5667 5665 5664 5662 5661 5660 5659 5658 5657 5656 5655 5654 5653 5652 5651 5650 5649 5648 5647 5646 5645 5644 5643 5642 5641 5640 5639 5639 5638 5637 5636 5635 5635 5634 5634 5634 5634 5633 5634 5634 5633 5633 5633 5634 5634 5634
5758 5756 5754 5752 5750 5748 5745 5743 5741 5738 5735 5733 5730 5728 5725 5722 5719 5717 5714 5712 5709 5707 5705 5702 5700 5698 5696 5693 5690 5687 5684 5681 5679 5677 5675 5673 5671 5669 5667 5665 5664 5662 5661 5659 5658 5657 5656 5654 5653 5652 5651 5650 5649 5649 5648 5647 5646 5645 5644 5644 5643 5642 5641 5640 5639 5638 5637 5637 5636 5635 5634 5633 5632 5632 5631 5631 5631 5631 5631 5631 5631 5631 5631 5631 5631
5757 5755 5753 5751 5749 5747 5745 5742 5740 5737 5734 5732 5730 5727 5724 5721 5719 5716 5714 5711 5709 5706 5704 5701 5699 5697 5694 5691 5688 5685 5682 5680 5677 5675 5673 5671 5669 5667 5666 5664 5662 5660 5659 5657 5656 5654 5653 5652 5651 5650 5649 5648 5647 5646 5645 5644 5643 5643 5642 5641 5640 5640 5639 5638 5637 5637 5636 5635 5634 5633 5632 5632 5631 5630 5630 5629 5629 5629 5629 5629 5629 5629 5629 5629 5629
5757 5755 5753 5751 5749 5747 5744 5742 5739 5736 5734 5731 5729 5726 5723 5720 5718 5715 5713 5710 5708 5705 5703 5700 5698 5696 5693 5690 5687 5684 5682 5679 5676 5674 5672 5669 5667 5666 5664 5662 5661 5659 5658 5656 5654 5653 5651 5650 5649 5647 5646 5645 5644 5643 5642 5641 5641 5640 5639 5639 5638 5637 5636 5636 5635 5635 5634 5633 5632 5632 5631 5630 5629 5628 5628 5628 5627 5627 5627 5626 5626 5626 5626 5626 5626
5756 5754 5752 5750 5748 5746 5744 5741 5738 5736 5733 5730 5728 5725 5722 5719 5717 5715 5712 5709 5707 5704 5702 5699 5697 5694 5692 5689 5686 5684 5681 5678 5675 5673 5671 5668 5666 5664 5663 5661 5659 5657 5656 5654 5652 5650 5649 5648 5646 5645 5644 5642 5641 5640 5639 5638 5638 5637 5636 5635 5635 5634 5634 5633 5632 5632 5632 5631 5630 5630 5629 5628 5627 5627 5626 5626 5625 5625 5624 5624 5624 5623 5623 5623 5623
5756 5753 5751 5749 5747 5745 5743 5740 5737 5735 5732 5730 5727 5724 5721 5719 5716 5714 5711 5708 5706 5703 5701 5698 5696 5693 5690 5688 5685 5682 5679 5676 5674 5671 5669 5667 5665 5663 5661 5659 5657 5655 5653 5652 5650 5649 5647 5645 5644 5643 5641 5640 5639 5638 5637 5636 5635 5634 5633 5632 5632 5631 5630 5630 5629 5629 5629 5628 5628 5627 5627 5626 5625 5625 5624 5624 5623 5622 5622 5622 5621 5621 5621 5620 5620
5755 5753 5751 5749 5746 5744 5741 5739 5736 5734 5731 5728 5726 5723 5721 5719 5716 5713 5711 5708 5705 5702 5700 5697 5695 5692 5689 5686 5683 5680 5678 5675 5672 5670 5667 5665 5663 5661 5658 5656 5654 5653 5651 5649 5648 5646 5645 5643 5641 5640 5639 5637 5636 5635 5634 5633 5632 5631 5630 5629 5628 5628 5627 5626 5626 5626 5625 5625 5625 5624 5624 5623 5623 5622 5622 5621 5621 5620 5619 5619 5618 5618 5618 5617 5617
5754 5752 5750 5748 5745 5742 5740 5738 5735 5732 5729 5727 5724 5722 5720 5718 5715 5712 5710 5707 5705 5702 5700 5697 5694 5691 5688 5685 5682 5679 5677 5674 5672 5669 5666 5664 5661 5659 5657 5655 5652 5650 5649 5647 5645 5643 5642 5640 5639 5637 5636 5634 5633 5632 5631 5630 5629 5628 5627 5626 5625 5624 5624 5623 5622 5622 5622 5622 5621 5621 5621 5620 5620 5619 5619 5619 5618 5617 5617 5616 5616 5615 5615 5615 5614
5753 5751 5749 5747 5744 5742 5739 5736 5734 5731 5728 5726 5723 5720 5718 5715 5712 5709 5707 5705 5703 5701 5698 5696 5693 5691 5688 5685 5682 5678 5675 5673 5670 5668 5665 5662 5660 5657 5655 5653 5651 5648 5646 5645 5643 5641 5639 5637 5635 5634 5633 5631 5630 5629 5627 5626 5625 5624 5623 5623 5622 5621 5620 5620 5619 5618 5618 5618 5618 5617 5617 5617 5617 5616 5616 5615 5615 5614 5614 5613 5613 5612 5612 5611 5611
5752 5750 5747 5745 5743 5741 5738 5735 5732 5729 5727 5724 5722 5719 5716 5713 5710 5708 5705 5703 5700 5698 5696 5694 5691 5688 5686 5683 5680 5677 5674 5671 5668 5665 5663 5661 5658 5656 5653 5651 5649 5646 5644 5642 5640 5638 5636 5634 5632 5630 5629 5628 5626 5625 5624 5623 5622 5621 5620 5619 5618 5618 5617 5616 5615 5615 5614 5614 5614 5614 5613 5613 5613 5613 5612 5612 5612 5611 5610 5610 5609 5609 5608 5608 5607
5751 5749 5747 5744 5742 5740 5737 5734 5731 5729 5726 5724 5721 5718 5715 5712 5710 5707 5704 5702 5699 5697 5695 5692 5690 5687 5685 5682 5679 5676 5674 5671 5668 5665 5662 5659 5657 5654 5652 5649 5647 5645 5642 5640 5638 5635 5633 5631 5629 5627 5625 5624 5623 5621 5620 5620 5619 5617 5616 5616 5615 5614 5613 5613 5612 5611 5611 5610 5610 5610 5610 5609 5609 5609 5609 5608 5608 5607 5607 5606 5606 5605 5604 5604 5603
5750 5748 5746 5743 5741 5739 5736 5733 5731 5728 5726 5723 5720 5717 5714 5711 5709 5706 5704 5701 5699 5696 5694 5691 5689 5686 5684 5681 5678 5676 5673 5670 5667 5664 5662 5658 5655 5653 5650 5647 5645 5642 5640 5638 5635 5633 5631 5628 5625 5623 5621 5620 5619 5617 5617 5616 5615 5614 5613 5612 5611 5610 5610 5609 5608 5608 5607 5607 5606 5606 5606 5605 5605 5605 5605 5604 5604 5603 5603 5602 5602 5601 5600 5600 5599